View from above orbital plane
|
View from above satellite
|
Ground track
|
The orbit data is extracted from the following two-line orbital elements,
1 37153U 10043B 19345.76871523 .00000027 00000-0 12857-3 0 9993
2 37153 82.4552 120.5350 0007020 203.0176 157.0596 12.40735731419359
Epoch (UTC): | 11 December 2019 18:26:56 |
Eccentricity: | 0.0007020 |
inclination: | 82.4552° |
perigee height: | 1498 km |
apogee height: | 1509 km |
right ascension of ascending node: | 120.5350° |
argument of perigee: | 203.0176° |
revolutions per day: | 12.40735731 |
mean anomaly at epoch: | 157.0596° |
orbit number at epoch: | 41935 |
The dashed part of the orbit path shows where the satellite is in the earth's shadow,
|
|